Location: Shenandoah County Park
(38.9356°N, 78.4524°W)
Time: 15:54:07
(UTC-04:00)

Transit 2A - All Passes

Search period start: 07 October 2024 00:00
Search period end: 17 October 2024 00:00
Orbit: 590 x 960 km, 66.7° (Epoch: 06 October)

Date Brightness Start Highest point End Pass type
(mag) Time Alt. Az. Time Alt. Az. Time Alt. Az.
07 Oct - 12:48:57 10° SSE 12:53:09 20° ESE 12:57:30 10° ENE daylight
07 Oct - 14:29:39 10° SW 14:35:41 66° WNW 14:42:02 10° NNE daylight
07 Oct - 16:16:45 10° WNW 16:20:07 15° NW 16:23:31 10° N daylight
07 Oct - 21:36:16 10° N 21:39:57 16° NE 21:43:27 10° ENE visible
07 Oct - 23:18:07 10° NNW 23:24:09 83° ENE 23:29:34 10° SSE visible
08 Oct - 01:03:55 10° WNW 01:06:17 13° W 01:08:34 10° SW night (unlit)
08 Oct - 12:15:29 10° SE 12:18:00 13° E 12:20:36 10° ENE daylight
08 Oct - 13:54:08 10° SSW 14:00:11 87° ESE 14:06:35 10° NNE daylight
08 Oct - 15:39:49 10° W 15:44:12 20° NW 15:48:40 10° N daylight
08 Oct - 21:01:45 10° NNE 21:04:00 12° NE 21:06:11 10° ENE visible
08 Oct - 22:42:41 10° NNW 22:48:37 57° ENE 22:53:58 10° SE visible
09 Oct - 00:27:02 10° WNW 00:31:09 20° WSW 00:34:59 10° SSW night (unlit)
09 Oct - 13:18:50 10° SSW 13:24:45 61° ESE 13:31:00 10° NE daylight
09 Oct - 15:03:17 10° WSW 15:08:23 26° NW 15:13:38 10° N daylight
09 Oct - 22:07:21 10° NNW 22:12:59 39° NE 22:18:07 10° ESE visible
09 Oct - 23:50:54 10° NW 23:55:57 30° WSW 00:00:34 10° SSW visible
10 Oct - 12:43:48 10° S 12:49:24 42° ESE 12:55:18 10° NE daylight
10 Oct - 14:27:04 10° WSW 14:32:39 35° NW 14:38:27 10° NNE daylight
10 Oct - 21:32:08 10° N 21:37:17 28° NE 21:42:02 10° ESE visible
10 Oct - 23:15:03 10° NW 23:20:39 46° WSW 23:25:44 10° S visible
11 Oct - 12:09:04 10° SSE 12:14:07 28° ESE 12:19:23 10° NE daylight
11 Oct - 13:51:05 10° SW 13:56:59 49° NW 14:03:10 10° NNE daylight
11 Oct - 15:39:50 10° NW 15:41:45 11° NW 15:43:41 10° NNW daylight
11 Oct - 20:57:02 10° N 21:01:29 21° NE 21:05:39 10° E visible
11 Oct - 22:39:23 10° NNW 22:45:18 70° WSW 22:50:36 10° SSE visible
12 Oct - 11:34:48 10° SE 11:38:54 19° ESE 11:43:09 10° ENE daylight
12 Oct - 13:15:19 10° SW 13:21:24 69° WNW 13:27:46 10° NNE daylight
12 Oct - 15:02:15 10° WNW 15:05:46 15° NW 15:09:20 10° N daylight
12 Oct - 20:22:08 10° N 20:25:35 15° NE 20:28:54 10° ENE visible
12 Oct - 22:03:51 10° NNW 22:09:50 79° ENE 22:15:12 10° SSE visible
12 Oct - 23:49:27 10° WNW 23:52:00 13° W 23:54:28 10° SW visible
13 Oct - 11:01:28 10° ESE 11:03:45 12° E 11:06:03 10° ENE daylight
13 Oct - 12:39:48 10° SSW 12:45:53 84° ESE 12:52:17 10° NNE daylight
13 Oct - 14:25:22 10° W 14:29:52 20° NW 14:34:27 10° N daylight
13 Oct - 19:47:44 10° NNE 19:49:37 11° NE 19:51:27 10° NE visible
13 Oct - 21:28:25 10° NNW 21:34:17 54° ENE 21:39:33 10° SE visible
13 Oct - 23:12:41 10° WNW 23:16:50 21° WSW 23:20:44 10° SSW visible
14 Oct - 12:04:31 10° S 12:10:27 58° ESE 12:16:41 10° NE daylight
14 Oct - 13:48:51 10° WSW 13:54:02 27° NW 13:59:21 10° N daylight
14 Oct - 20:53:06 10° NNW 20:58:38 37° NE 21:03:40 10° ESE visible
14 Oct - 22:36:34 10° NW 22:41:37 32° WSW 22:46:15 10° S visible
15 Oct - 11:29:30 10° S 11:35:05 40° ESE 11:40:57 10° NE daylight
15 Oct - 13:12:37 10° WSW 13:18:18 37° NW 13:24:09 10° NNE daylight
15 Oct - 20:17:52 10° N 20:22:53 27° NE 20:27:31 10° ESE visible
15 Oct - 22:00:43 10° NW 22:06:19 48° WSW 22:11:22 10° S visible
16 Oct - 10:54:48 10° SSE 10:59:49 27° ESE 11:05:00 10° NE daylight
16 Oct - 12:36:39 10° SW 12:42:37 51° NW 12:48:50 10° NNE daylight
16 Oct - 14:25:08 10° NW 14:27:20 12° NW 14:29:32 10° NNW daylight
16 Oct - 19:42:47 10° N 19:47:04 20° NE 19:51:05 10° E visible
16 Oct - 21:25:03 10° NNW 21:30:55 74° WSW 21:36:11 10° SSE visible
